Probability
0 0 0 0 0 0 0 0 0 0 0 0 0 0 0 0 0 0 0 0 0 0 0 0 0 0 0 0 0 0 0 0 1 2 3 4 6 7
0 0 0 0 0 0 0 0 0 0 0 0 0 0 0 0 0 0 0 0 0 0 0 0 0 0 0 0 0 0 0 0 0 1 1 2 3 4
0 0 0 0 0 0 0 0 0 0 0 0 0 0 0 0 0 0 0 0 0 0 0 0 0 0 0 0 0 0 0 0 0 0 0 0 1 1
0 0 0 0 0 0 0 0 0 0 0 0 0 0 0 0 0 0 0 0 0 0 0 0 0 0 0 0 0 0 0 0 0 0 0 0 0 0
0 0 0 0 0 0 0 0 0 0 0 0 0 0 0 0 0 0 0 0 0 0 0 0 0 0 0 0 0 0 0 0 0 0 0 0 0 0
0 0 0 0 0 0 0 0 0 0 0 0 0 0 0 0 0 0 0 0 0 0 0 0 0 0 0 0 0 0 0 0 0 0 0 0 0 0
0 0 0 0 0 0 0 0 0 0 0 0 0 0 0 0 0 0 0 0 0 0 0 0 0 0 0 0 0 0 0 0 0 0 0 0 0 0
0 0 0 0 0 0 0 0 0 0 0 0 0 0 0 0 0 0 0 0 0 0 0 0 0 0 0 0 0 0 0 0 0 0 0 0 0 0
0 0 0 0 0 0 0 0 0 0 0 0 0 0 0 0 0 0 0 0 0 0 0 0 0 0 0 0 0 0 0 0 0 0 0 0 0 0
0 0 0 0 0 0 0 0 0 0 0 0 0 0 0 0 0 0 0 0 0 0 0 0 0 0 0 0 0 0 0 0 0 0 0 0 0 0
0 0 0 0 0 0 0 0 0 0 0 0 0 0 0 0 0 0 0 0 0 0 0 0 0 0 0 0 0 0 0 0 0 0 0 0 0 0
0 0 0 0 0 0 0 0 0 0 0 0 0 0 0 0 0 0 0 0 0 0 0 0 0 0 0 0 0 0 0 0 0 0 0 0 0 0
0 0 0 0 0 0 0 0 0 0 0 0 0 0 0 0 0 0 0 0 0 0 0 0 0 0 0 0 0 0 0 0 0 0 0 0 0 0
0 0 0 0 0 0 0 0 0 0 0 0 0 0 0 0 0 0 0 0 0 0 0 0 0 0 0 0 0 0 0 0 0 0 0 0 0 0
0 0 0 0 0 0 0 0 0 0 0 0 0 0 0 0 0 0 0 0 0 0 0 0 0 0 0 0 0 0 0 0 0 0 0 0 0 0
0 0 0 0 0 0 0 0 0 0 0 0 0 0 0 0 0 0 0 0 0 0 0 0 0 0 0 0 0 0 0 0 0 0 0 0 0 0
0 0 0 0 0 0 0 0 0 0 0 0 0 0 0 0 0 0 0 0 0 0 0 0 0 0 0 0 0 0 0 0 0 0 0 0 0 0
0 0 0 0 0 0 0 0 0 0 0 0 0 0 0 0 0 0 0 0 0 0 0 0 0 0 0 0 0 0 0 0 0 0 0 0 0 0
0 0 0 0 0 0 0 0 0 0 0 0 0 0 0 0 0 0 0 0 0 0 0 0 0 0 0 0 0 0 0 0 0 0 0 0 0 0
0 0 0 0 0 0 0 0 0 0 0 0 0 0 0 0 0 0 0 0 0 0 0 0 0 0 0 0 0 0 0 0 0 0 0 0 0 0
0 0 0 0 0 0 0 0 0 0 0 0 0 0 0 0 0 0 0 0 0 0 0 0 0 0 0 0 0 0 0 0 0 0 0 0 0 0
0 0 0 0 0 0 0 0 0 0 0 0 0 0 0 0 0 0 0 0 0 0 0 0 0 0 0 0 0 0 0 0 0 0 0 0 0 0
0 0 0 0 0 0 0 0 0 0 0 0 0 0 0 0 0 0 0 0 0 0 0 0 0 0 0 0 0 0 0 0 0 0 0 0 0 0
Wind_Speed
2 2 2 1 1 1 2 2 3 0 2 3 3 3 2 2 3 2 3 6 8 9 10 10 10 10 11 11 11 11 11 11 12 12 13 14 15 16
1 2 1 0 1 1 1 1 2 3 2 3 3 3 3 3 4 3 4 7 9 10 10 11 11 12 12 12 12 12 12 12 12 13 13 14 14 15
1 2 1 1 1 1 1 1 1 2 2 3 2 3 3 4 4 4 4 4 4 9 10 11 12 12 12 12 12 12 12 12 12 13 13 14 14 15
2 2 2 1 1 0 0 0 1 1 2 3 3 3 3 4 4 4 4 3 3 7 8 8 9 10 10 11 12 12 13 13 13 13 13 14 14 15
4 4 3 3 2 2 2 2 1 1 1 2 3 2 3 3 3 4 4 3 4 5 6 6 7 8 9 10 11 12 13 13 13 13 14 14 14 14
4 4 4 4 4 4 3 3 2 1 1 1 2 3 3 3 2 2 4 3 4 5 5 5 6 8 9 11 12 12 13 13 14 14 14 15 14 14
4 4 4 6 7 6 4 4 3 2 2 2 3 3 3 3 3 2 3 4 4 3 3 4 4 4 6 8 10 13 14 14 14 15 15 15 15 15
4 4 4 5 7 8 9 8 7 5 4 3 3 4 5 4 4 3 3 3 4 3 2 5 3 5 6 5 10 13 14 14 14 15 15 15 16 16
5 4 4 4 5 4 6 7 8 10 10 6 6 7 6 5 4 4 4 5 6 5 2 5 4 6 6 7 12 14 14 14 14 14 15 15 15 16
5 6 5 6 5 5 4 5 6 7 8 7 7 9 8 7 6 6 6 5 6 5 3 5 5 6 7 6 11 14 14 14 14 14 15 15 15 15
6 5 6 6 8 8 5 5 7 7 9 11 12 12 13 13 9 4 4 3 5 6 4 4 5 5 5 6 9 12 12 13 13 13 14 14 15 13
4 5 7 8 9 8 6 6 7 9 7 6 7 9 9 10 11 8 7 6 5 5 4 4 4 3 4 5 5 5 6 10 13 14 14 14 13 7
4 4 5 8 9 9 8 7 10 9 6 6 6 7 6 6 6 7 7 7 7 7 6 4 4 4 4 5 4 4 5 5 5 7 10 14 13 10
6 5 5 8 9 9 7 9 12 9 5 5 5 6 7 7 7 7 8 9 10 11 9 6 5 5 5 6 6 4 4 5 5 6 6 8 11 13
6 7 8 9 8 7 10 12 9 5 4 5 6 8 7 7 6 5 6 7 8 10 10 8 8 7 6 8 8 6 5 5 5 6 6 6 5 5
6 6 8 9 7 8 8 7 5 5 5 6 7 7 5 5 5 5 6 5 5 7 8 9 9 9 8 9 8 9 7 5 4 5 6 6 5 6
3 2 2 2 3 4 4 5 4 4 5 5 5 6 6 6 6 5 5 4 5 7 8 6 6 7 9 8 8 9 8 8 8 7 5 7 7 7
4 2 3 4 5 5 5 5 4 5 5 5 5 5 6 6 6 5 4 5 7 7 7 6 4 4 4 6 10 10 8 8 7 6 5 6 8 6
2 3 4 5 5 5 5 5 5 5 4 4 5 5 5 5 5 6 5 5 6 7 7 5 4 4 7 9 7 9 8 7 6 5 6 7 8 7
3 4 5 5 5 5 5 5 5 5 4 4 5 5 5 5 5 5 5 6 6 7 7 6 6 6 8 9 7 7 10 8 6 7 6 5 6 8
4 4 5 5 5 5 5 5 5 5 5 4 5 5 5 4 5 5 6 8 7 6 7 8 8 9 6 4 6 7 6 9 10 7 5 4 4 4
4 4 4 4 4 4 4 4 4 4 4 4 5 5 5 4 5 7 6 6 6 6 8 8 7 5 4 5 8 9 8 6 7 12 12 10 5 5
4 4 4 3 3 3 3 4 4 4 4 4 4 5 5 4 5 5 6 6 6 7 7 7 5 4 5 6 7 7 9 8 5 4 6 9 13 15
Wind_Direction
102 98 93 57 63 88 118 139 142 145 304 302 320 323 326 291 272 263 262 260 256 256 256 256 255 256 256 254 252 250 248 246 245 243 242 242 239 239
132 111 94 61 43 53 78 99 135 157 228 276 272 285 305 310 281 270 266 271 266 266 265 263 261 257 254 252 251 250 248 245 243 241 239 240 242 241
156 146 170 158 101 33 56 78 109 140 206 281 279 291 306 308 309 299 283 276 276 273 273 270 267 264 259 255 253 251 250 247 245 244 243 240 239 240
190 173 201 177 178 220 176 247 232 185 184 267 292 300 296 297 296 298 299 295 283 283 283 284 279 274 268 263 260 255 253 251 248 247 246 244 243 243
191 191 206 185 210 225 220 230 246 243 188 221 275 282 288 300 319 314 312 311 302 298 300 299 294 289 281 271 265 260 256 253 250 248 247 246 245 244
201 202 206 201 210 218 223 227 228 241 238 243 271 284 285 292 311 303 311 307 302 305 302 297 295 296 288 279 270 263 258 254 251 249 248 247 246 245
226 225 226 224 221 218 215 214 207 216 234 246 265 282 285 293 280 269 279 289 287 272 287 291 295 292 289 284 276 266 260 256 252 249 246 245 243 242
225 241 249 247 244 238 234 222 206 206 217 225 242 249 261 257 257 258 264 290 293 277 263 282 281 281 278 268 267 266 263 259 254 251 248 244 240 239
222 230 244 243 239 240 250 250 241 234 221 210 228 242 247 243 243 260 253 244 250 257 255 278 276 274 274 276 272 268 265 261 257 253 250 247 242 239
226 225 233 248 248 232 237 251 255 253 242 228 229 242 244 242 230 238 248 258 263 261 218 256 270 268 276 272 271 268 267 265 262 258 254 251 246 242
240 233 232 241 248 239 230 247 264 269 262 247 240 246 252 256 248 243 251 250 270 271 218 220 257 267 269 267 267 265 266 266 264 261 257 254 250 246
251 249 242 241 246 242 223 232 254 265 269 277 267 267 263 264 257 230 229 238 251 267 243 212 249 261 283 266 260 264 265 265 264 261 256 253 249 239
239 245 243 241 243 246 235 228 243 256 267 264 269 273 272 265 259 242 226 224 235 248 242 206 238 237 238 273 276 260 254 259 263 261 256 252 244 219
231 238 241 246 249 254 250 248 255 262 259 263 267 270 269 267 263 256 246 236 233 243 251 222 230 240 250 264 271 269 257 250 249 255 254 254 247 231
238 245 252 260 264 264 261 263 265 251 242 250 259 262 258 259 264 266 266 257 252 250 253 239 235 245 240 253 262 262 269 264 244 246 251 244 238 223
247 262 269 270 264 260 269 271 253 238 234 245 255 261 266 267 264 259 263 268 270 273 260 246 240 238 248 251 254 261 254 251 255 244 245 250 242 226
205 244 270 276 276 273 271 269 264 254 247 247 252 264 269 269 269 264 256 260 259 270 280 274 251 240 239 245 253 254 255 255 253 252 246 256 252 236
172 217 244 250 256 263 267 271 268 259 253 253 255 257 262 266 272 270 258 256 262 266 269 271 277 289 284 260 231 246 253 254 255 245 230 244 261 252
184 236 246 251 255 257 258 259 264 265 260 256 257 259 260 264 267 269 266 264 264 266 268 266 259 257 273 279 265 225 235 253 252 248 237 232 248 254
222 242 252 255 254 254 255 256 262 269 266 262 261 262 261 263 265 265 264 264 269 272 274 268 254 244 247 262 272 266 235 235 244 251 252 247 249 257
237 244 249 253 254 254 255 257 259 263 264 264 265 263 261 260 263 265 266 269 268 270 273 272 263 257 256 257 268 269 260 234 229 236 243 247 254 256
252 253 253 250 252 257 260 262 266 267 269 266 266 268 267 263 266 270 268 268 266 265 269 274 277 274 250 248 262 272 278 275 252 243 236 224 219 231
242 246 249 252 251 254 259 263 266 268 267 270 270 268 268 270 269 267 266 265 267 271 275 280 281 269 258 255 263 270 274 277 276 271 264 250 243 247